Weather History for Youngstown, OH

Change the Weather History Date:

Thursday, January 3, 2013

  Actual Average Record
Temperature  
Mean Temperature 17 °F 26 °F  
Max Temperature 29 °F 33 °F 61 °F (1950)
Min Temperature 4 °F 20 °F -4 °F (1979)
Degree Days  
Heating Degree Days 48 39  
Month to date heating degree days 137 117  
Since 1 July heating degree days 2400 2523  
Cooling Degree Days 0 0  
Month to date cooling degree days 0 0  
Year to date cooling degree days 0 0  
Moisture  
Dew Point 13 °F    
Average Humidity 74    
Maximum Humidity 92    
Minimum Humidity 55    
Precipitation  
Precipitation T in 0.09 in 0.95 in (2000)
Month to date precipitation 0.03 0.27  
Year to date precipitation 0.03 0.27  
Snow  
Snow T in 0.60 in - ()
Month to date snowfall 0.4 1.6  
Since 1 July snowfall 27.6 21.0  
Snow Depth 7.00 in    
Sea Level Pressure  
Sea Level Pressure 30.17 in    
Wind  
Wind Speed 9 mph (SW)    
Max Wind Speed 21 mph    
Max Gust Speed 26 mph    
Visibility 8 miles    
Events Snow    
T = Trace of Precipitation, MM = Missing Value Source: NWS Daily Summary

Daily Weather History Graph

Daily Weather History Graph

Search for Another Location

Airport:

Trip Planner

Search our weather history database for the weather conditions in past years. The results will help you decide how hot, cold, wet, or windy it might be!

Date:

Astronomy

Jan. 03, 2013 Rise Set
Actual Time 7:48 AM EST 5:06 PM EST
Civil Twilight 7:17 AM EST 5:37 PM EST
Nautical Twilight 6:42 AM EST 6:12 PM EST
Astronomical Twilight 6:09 AM EST 6:45 PM EST
Moon 11:44 PM EST (1/3) 10:55 AM EST (1/3)
Length of Visible Light 10h 19m
Length of Day
9h 17m
Waning Gibbous, 65% of the Moon is Illuminated
Jan 3
Waning Gibbous
Jan 4
Last Quarter
Jan 11
New
Jan 18
First Quarter
Jan 26
Full

Hourly Weather History & Observations

Time (EST) Temp. Windchill Dew Point Humidity Pressure Visibility Wind Dir Wind Speed Gust Speed Precip Events Conditions
12:51 AM 9.0 °F 2.4 °F 5.0 °F 84% 30.22 in 7.0 mi SSW 3.5 mph - N/A   Mostly Cloudy
1:51 AM 10.0 °F 3.6 °F 6.1 °F 84% 30.22 in 7.0 mi SSW 3.5 mph - N/A   Mostly Cloudy
2:51 AM 7.0 °F - 3.9 °F 87% 30.23 in 7.0 mi Calm Calm - N/A   Mostly Cloudy
3:51 AM 5.0 °F - 1.0 °F 84% 30.21 in 7.0 mi Calm Calm - N/A   Mostly Cloudy
4:51 AM 7.0 °F 0.1 °F 3.0 °F 84% 30.22 in 7.0 mi South 3.5 mph - N/A   Mostly Cloudy
5:01 AM 6.8 °F -0.1 °F 1.4 °F 79% 30.14 in 7.0 mi South 3.5 mph - N/A   Overcast
5:51 AM 7.0 °F 0.1 °F 3.0 °F 84% 30.22 in 7.0 mi South 3.5 mph - N/A   Mostly Cloudy
6:51 AM 12.0 °F 4.1 °F 8.1 °F 84% 30.22 in 7.0 mi South 4.6 mph - N/A   Overcast
7:51 AM 12.9 °F 3.8 °F 9.0 °F 84% 30.21 in 7.0 mi South 5.8 mph - N/A   Overcast
8:51 AM 12.9 °F 1.6 °F 10.0 °F 88% 30.20 in 6.0 mi South 8.1 mph - N/A   Scattered Clouds
9:51 AM 17.1 °F 7.6 °F 10.0 °F 74% 30.20 in 8.0 mi South 6.9 mph - N/A   Scattered Clouds
10:51 AM 21.2 °F 9.5 °F 10.4 °F 63% 30.13 in 10.0 mi SSW 11.5 mph - N/A   Mostly Cloudy
11:51 AM 25.0 °F 14.8 °F 12.9 °F 60% 30.16 in 10.0 mi SSW 10.4 mph - N/A   Mostly Cloudy
12:51 PM 27.0 °F 14.7 °F 12.9 °F 56% 30.13 in 10.0 mi SW 16.1 mph 20.7 mph N/A   Overcast
1:51 PM 27.0 °F 13.9 °F 14.0 °F 58% 30.12 in 9.0 mi SW 18.4 mph - 0.00 in Snow Light Snow
2:51 PM 28.4 °F 17.0 °F 15.8 °F 59% 30.05 in 10.0 mi SW 15.0 mph 21.9 mph N/A   Overcast
3:07 PM 28.4 °F 17.0 °F 15.8 °F 59% 30.06 in 10.0 mi WSW 15.0 mph - N/A   Overcast
3:51 PM 28.9 °F 19.2 °F 16.0 °F 58% 30.13 in 10.0 mi WSW 11.5 mph - N/A   Overcast
4:51 PM 28.9 °F 19.2 °F 19.0 °F 67% 30.14 in 10.0 mi West 11.5 mph - N/A   Overcast
5:51 PM 28.0 °F 17.0 °F 19.9 °F 72% 30.16 in 10.0 mi WSW 13.8 mph 21.9 mph 0.00 in Snow Light Snow
6:51 PM 28.0 °F 17.0 °F 19.9 °F 72% 30.17 in 9.0 mi WSW 13.8 mph - 0.00 in Snow Light Snow
7:51 PM 27.0 °F 16.1 °F 19.9 °F 75% 30.19 in 9.0 mi West 12.7 mph 21.9 mph 0.00 in Snow Light Snow
8:51 PM 27.0 °F 16.7 °F 19.9 °F 75% 30.19 in 9.0 mi WSW 11.5 mph - 0.00 in Snow Light Snow
9:19 PM 26.6 °F 16.2 °F 19.4 °F 74% 30.13 in 9.0 mi WSW 11.5 mph - 0.00 in Snow Light Snow
9:51 PM 27.0 °F 17.3 °F 19.9 °F 75% 30.19 in 9.0 mi WSW 10.4 mph - 0.00 in Snow Light Snow
10:09 PM 26.6 °F 14.7 °F 19.4 °F 74% 30.14 in 9.0 mi WSW 15.0 mph 20.7 mph 0.00 in Snow Light Snow
10:51 PM 27.0 °F 17.3 °F 19.9 °F 75% 30.19 in 8.0 mi WSW 10.4 mph 19.6 mph 0.00 in Snow Light Snow
11:51 PM 27.0 °F 16.1 °F 19.9 °F 75% 30.19 in 7.0 mi WSW 12.7 mph - 0.00 in Snow Light Snow